Location: Invercargill
(46.4000°S, 168.3500°E)
Time: 21:25:35
(UTC+12:00)

Tiros 1 - Visible Passes

Search period start: 17 July 2019 00:00
Search period end: 27 July 2019 00:00
Orbit: 630 x 664 km, 48.4° (Epoch: 16 July)

Date Brightness Start Highest point End Pass type
(mag) Time Alt. Az. Time Alt. Az. Time Alt. Az.
17 Jul 10.1 04:30:28 13° ESE 04:30:28 13° ESE 04:30:57 10° ESE visible
17 Jul 7.1 06:08:08 63° SW 06:08:39 70° S 06:13:22 10° E visible
17 Jul 7.4 07:46:14 10° WSW 07:50:54 63° NNW 07:55:35 10° NE visible
18 Jul 9.4 04:55:24 22° ESE 04:55:24 22° ESE 04:57:08 10° E visible
18 Jul 7.1 06:33:04 38° WSW 06:34:50 86° SSE 06:39:35 10° ENE visible
19 Jul 8.4 05:20:21 38° ESE 05:20:21 38° ESE 05:23:21 10° E visible
19 Jul 7.3 06:58:01 22° W 07:00:55 66° NNW 07:05:36 10° ENE visible
20 Jul 7.3 05:45:19 71° E 05:45:19 71° E 05:49:35 10° ENE visible
20 Jul 8.0 07:22:59 13° W 07:26:51 38° NNW 07:31:14 10° NE visible
21 Jul 10.0 04:32:39 14° E 04:32:39 14° E 04:33:21 10° E visible
21 Jul 7.1 06:10:19 60° WNW 06:10:56 69° NNW 06:15:37 10° ENE visible
22 Jul 9.3 04:57:42 24° E 04:57:42 24° E 04:59:34 10° ENE visible
22 Jul 7.8 06:35:22 31° WNW 06:36:53 41° NNW 06:41:18 10° NE visible
23 Jul 8.4 05:22:47 36° NE 05:22:47 36° NE 05:25:38 10° ENE visible
23 Jul 8.6 07:00:28 16° WNW 07:02:39 22° NW 07:06:16 10° N visible
24 Jul 8.1 05:47:57 37° N 05:47:57 37° N 05:51:22 10° NE visible
24 Jul 9.4 07:27:23 10° WNW 07:28:13 10° NW 07:29:04 10° NW visible
25 Jul 10.1 04:35:30 11° ENE 04:35:30 11° ENE 04:35:39 10° ENE visible
25 Jul 8.6 06:13:11 23° NNW 06:13:11 23° NNW 06:16:25 10° NNE visible
26 Jul 9.7 05:00:48 13° NE 05:00:48 13° NE 05:01:25 10° NE visible
26 Jul 9.3 06:38:30 11° NW 06:38:30 11° NW 06:39:47 10° NNW visible
